Location: Aragüita
(10.0436°N, 67.8028°W)
Time: 13:37:16
(UTC+00:00)

Cosmos 1862 Rocket - Pass Details

Date: 18 January 2026
Orbit: 596 x 627 km, 82.5° (Epoch: 8 February)

Event Time Altitude Azimuth Distance (km) Brightness Sun altitude
Rises 23:13:16 0° 192° (SSW) 2,903 7.5 -10.8°
Reaches altitude 10° 23:15:32 10° 196° (SSW) 1,996 6.7 -11.3°
Maximum altitude 23:19:52 57° 274° (W) 735 4.3 -12.3°
Drops below altitude 10° 23:24:13 10° 353° (N) 1,990 6.0 -13.3°
Sets 23:26:28 0° 358° (N) 2,893 6.8 -13.9°
